SWA4416 KHOU-KMSY

Flight info

Callsign SWA4416
Flight time 0h 43m
Altitude 33000
Route ELOCO6 LLA AWDAD AWDAD1
Aircraft B738/M-SADE2E3GIJ4RWZ/LB1D1

Departure

Time 2026-05-06 17:56
Airport William P. Hobby Airport (KHOU)

Arrival

Time 2026-05-06 18:39
Airport Louis Armstrong New Orleans International Airport (KMSY)
Time Latitude Longitude Altitude Speed Heading
2026-05-06 17:39 29.65215 -95.27577 52 ft 0 kts 358°
2026-05-06 17:49 29.65212 -95.27577 52 ft 2 kts 358°
2026-05-06 17:49 29.65194 -95.27577 48 ft 3 kts
2026-05-06 17:50 29.65174 -95.27579 48 ft 3 kts 12°
2026-05-06 17:50 29.65156 -95.27585 48 ft 3 kts 38°
2026-05-06 17:50 29.65146 -95.27598 48 ft 2 kts 85°
2026-05-06 17:52 29.65147 -95.27558 52 ft 13 kts 85°
2026-05-06 17:53 29.65161 -95.27403 51 ft 24 kts 68°
2026-05-06 17:53 29.65277 -95.27266 48 ft 24 kts 41°
2026-05-06 17:53 29.65396 -95.27139 49 ft 23 kts 45°
2026-05-06 17:53 29.65454 -95.27073 51 ft 8 kts 47°
2026-05-06 17:54 29.65480 -95.27016 50 ft 9 kts 78°
2026-05-06 17:54 29.65478 -95.26979 50 ft 0 kts 103°
2026-05-06 17:55 29.65471 -95.26962 50 ft 9 kts 119°
2026-05-06 17:55 29.65402 -95.26915 50 ft 15 kts 187°
2026-05-06 17:55 29.65302 -95.27000 47 ft 29 kts 223°
2026-05-06 17:56 29.64968 -95.27369 50 ft 105 kts 224°
2026-05-06 17:56 29.64280 -95.28130 75 ft 166 kts 223°
2026-05-06 17:56 29.63403 -95.29110 649 ft 184 kts 217°
2026-05-06 17:56 29.62381 -95.30066 1381 ft 187 kts 217°
2026-05-06 17:57 29.61373 -95.31082 2082 ft 198 kts 223°
2026-05-06 17:57 29.60368 -95.32268 2443 ft 215 kts 223°
2026-05-06 17:57 29.59268 -95.33515 2973 ft 228 kts 222°
2026-05-06 17:57 29.58088 -95.34845 3529 ft 249 kts 223°
2026-05-06 17:58 29.56757 -95.36154 4373 ft 256 kts 207°
2026-05-06 17:58 29.55011 -95.36539 5253 ft 263 kts 172°
2026-05-06 17:58 29.53336 -95.35651 6189 ft 277 kts 141°
2026-05-06 17:58 29.52289 -95.33757 7061 ft 290 kts 109°
2026-05-06 17:59 29.51892 -95.31488 7864 ft 300 kts 102°
2026-05-06 17:59 29.51887 -95.29047 8616 ft 312 kts 83°
2026-05-06 17:59 29.52373 -95.26586 9470 ft 319 kts 78°
2026-05-06 17:59 29.52964 -95.24095 10186 ft 327 kts 77°
2026-05-06 18:00 29.53578 -95.21560 10931 ft 331 kts 78°
2026-05-06 18:00 29.54183 -95.18999 11729 ft 334 kts 78°
2026-05-06 18:00 29.54779 -95.16404 12534 ft 337 kts 79°
2026-05-06 18:00 29.55367 -95.13768 13387 ft 343 kts 79°
2026-05-06 18:01 29.55953 -95.11089 14186 ft 348 kts 79°
2026-05-06 18:01 29.56544 -95.08374 14869 ft 354 kts 79°
2026-05-06 18:01 29.57218 -95.05567 15114 ft 377 kts 77°
2026-05-06 18:01 29.57944 -95.02626 15305 ft 398 kts 77°
2026-05-06 18:02 29.58684 -94.99513 15742 ft 408 kts 78°
2026-05-06 18:02 29.59403 -94.96344 16360 ft 413 kts 78°
2026-05-06 18:02 29.60106 -94.93115 17037 ft 416 kts 79°
2026-05-06 18:02 29.60791 -94.89863 17697 ft 420 kts 79°
2026-05-06 18:03 29.61472 -94.86573 18302 ft 425 kts 79°
2026-05-06 18:03 29.62154 -94.83246 18867 ft 430 kts 79°
2026-05-06 18:03 29.62841 -94.79880 19431 ft 435 kts 79°
2026-05-06 18:03 29.63535 -94.76476 20019 ft 440 kts 79°
2026-05-06 18:04 29.64236 -94.73036 20567 ft 445 kts 79°
2026-05-06 18:04 29.64945 -94.69549 21108 ft 450 kts 79°
2026-05-06 18:04 29.65662 -94.66027 21647 ft 455 kts 79°
2026-05-06 18:04 29.66385 -94.62471 22173 ft 460 kts 79°
2026-05-06 18:05 29.67107 -94.58913 22693 ft 464 kts 78°
2026-05-06 18:05 29.67853 -94.55230 23206 ft 469 kts 78°
2026-05-06 18:05 29.68597 -94.51556 23656 ft 474 kts 78°
2026-05-06 18:05 29.69347 -94.47846 24079 ft 478 kts 78°
2026-05-06 18:06 29.70101 -94.44108 24511 ft 481 kts 78°
2026-05-06 18:06 29.70851 -94.40339 24938 ft 485 kts 80°
2026-05-06 18:06 29.71464 -94.36575 25368 ft 487 kts 83°
2026-05-06 18:06 29.71979 -94.32712 25796 ft 490 kts 84°
2026-05-06 18:07 29.72451 -94.28812 26193 ft 493 kts 84°
2026-05-06 18:07 29.72942 -94.24893 26586 ft 497 kts 84°
2026-05-06 18:07 29.73451 -94.20936 26969 ft 501 kts 84°
2026-05-06 18:07 29.73967 -94.16965 27346 ft 504 kts 83°
2026-05-06 18:08 29.74489 -94.12961 27752 ft 507 kts 83°
2026-05-06 18:08 29.75012 -94.08941 28118 ft 511 kts 83°
2026-05-06 18:08 29.75538 -94.04882 28467 ft 514 kts 84°
2026-05-06 18:08 29.76065 -94.00797 28813 ft 518 kts 84°
2026-05-06 18:09 29.76593 -93.96685 29156 ft 521 kts 84°
2026-05-06 18:09 29.77123 -93.92544 29503 ft 525 kts 84°
2026-05-06 18:09 29.77477 -93.89771 29656 ft 529 kts 84°
2026-05-06 18:09 29.78186 -93.84197 30057 ft 533 kts 84°
2026-05-06 18:10 29.78723 -93.79962 30355 ft 535 kts 83°
2026-05-06 18:10 29.79262 -93.75710 30668 ft 537 kts 83°
2026-05-06 18:10 29.79625 -93.72836 30864 ft 538 kts 83°
2026-05-06 18:10 29.80165 -93.68559 31165 ft 540 kts 83°
2026-05-06 18:11 29.80704 -93.64278 31500 ft 541 kts 83°
2026-05-06 18:11 29.81242 -93.59989 31877 ft 540 kts 83°
2026-05-06 18:11 29.81778 -93.55708 32309 ft 539 kts 83°
2026-05-06 18:11 29.82309 -93.51451 32772 ft 536 kts 83°
2026-05-06 18:12 29.82838 -93.47195 32953 ft 539 kts 83°
2026-05-06 18:12 29.83363 -93.42962 32946 ft 541 kts 83°
2026-05-06 18:12 29.84409 -93.34500 32942 ft 527 kts 83°
2026-05-06 18:13 29.85434 -93.26163 32956 ft 525 kts 83°
2026-05-06 18:13 29.86454 -93.17813 32964 ft 527 kts 83°
2026-05-06 18:14 29.87472 -93.09432 32950 ft 528 kts 83°
2026-05-06 18:14 29.88487 -93.01040 32962 ft 529 kts 83°
2026-05-06 18:15 29.89496 -92.92650 32963 ft 528 kts 83°
2026-05-06 18:15 29.90499 -92.84266 32985 ft 528 kts 83°
2026-05-06 18:16 29.91497 -92.75872 32963 ft 528 kts 83°
2026-05-06 18:16 29.92481 -92.67552 32970 ft 527 kts 83°
2026-05-06 18:17 29.93464 -92.59196 32973 ft 525 kts 83°
2026-05-06 18:17 29.94443 -92.50833 32318 ft 528 kts 83°
2026-05-06 18:18 29.94930 -92.46648 31708 ft 527 kts 83°
2026-05-06 18:18 29.95416 -92.42466 31072 ft 527 kts 84°
2026-05-06 18:18 29.95903 -92.38261 30385 ft 529 kts 84°
2026-05-06 18:18 29.96389 -92.34056 29602 ft 531 kts 84°
2026-05-06 18:19 29.96875 -92.29831 28967 ft 528 kts 84°
2026-05-06 18:19 29.97324 -92.25929 28440 ft 523 kts 84°
2026-05-06 18:19 29.97811 -92.21677 27895 ft 517 kts 84°
2026-05-06 18:19 29.98279 -92.17582 27371 ft 512 kts 84°
2026-05-06 18:20 29.98742 -92.13526 26845 ft 508 kts 84°
2026-05-06 18:20 29.99199 -92.09504 26336 ft 504 kts 84°
2026-05-06 18:20 29.99645 -92.05560 25626 ft 504 kts 84°
2026-05-06 18:20 30.00097 -92.01558 25047 ft 501 kts 84°
2026-05-06 18:21 30.00545 -91.97582 24511 ft 498 kts 84°
2026-05-06 18:21 30.00988 -91.93633 23972 ft 494 kts 84°
2026-05-06 18:21 30.01428 -91.89705 23428 ft 490 kts 84°
2026-05-06 18:21 30.01862 -91.85825 22839 ft 484 kts 84°
2026-05-06 18:22 30.02289 -91.81998 22304 ft 478 kts 84°
2026-05-06 18:22 30.02710 -91.78209 21779 ft 472 kts 84°
2026-05-06 18:22 30.03124 -91.74475 21275 ft 467 kts 84°
2026-05-06 18:22 30.03532 -91.70787 20777 ft 461 kts 84°
2026-05-06 18:23 30.03935 -91.67132 20287 ft 456 kts 84°
2026-05-06 18:23 30.04332 -91.63521 19801 ft 451 kts 84°
2026-05-06 18:23 30.04723 -91.59948 19314 ft 447 kts 84°
2026-05-06 18:23 30.05103 -91.56484 18819 ft 437 kts 84°
2026-05-06 18:24 30.05482 -91.53006 18338 ft 434 kts 84°
2026-05-06 18:24 30.05857 -91.49560 17808 ft 431 kts 84°
2026-05-06 18:24 30.06228 -91.46143 17313 ft 425 kts 84°
2026-05-06 18:24 30.06590 -91.42806 16807 ft 413 kts 84°
2026-05-06 18:25 30.06941 -91.39570 16444 ft 399 kts 84°
2026-05-06 18:25 30.07281 -91.36427 15967 ft 389 kts 85°
2026-05-06 18:25 30.07610 -91.33369 15523 ft 379 kts 85°
2026-05-06 18:25 30.07931 -91.30378 15113 ft 373 kts 85°
2026-05-06 18:26 30.08247 -91.27426 14709 ft 368 kts 85°
2026-05-06 18:26 30.08556 -91.24518 14321 ft 374 kts 85°
2026-05-06 18:26 30.08877 -91.21483 13879 ft 384 kts 85°
2026-05-06 18:26 30.09202 -91.18428 13408 ft 380 kts 85°
2026-05-06 18:27 30.09521 -91.15438 12946 ft 370 kts 86°
2026-05-06 18:27 30.09830 -91.12535 12518 ft 359 kts 85°
2026-05-06 18:27 30.10131 -91.09702 12117 ft 352 kts 86°
2026-05-06 18:27 30.10426 -91.06903 11724 ft 349 kts 86°
2026-05-06 18:28 30.10716 -91.04138 11507 ft 346 kts 86°
2026-05-06 18:28 30.11007 -91.01350 11389 ft 352 kts 86°
2026-05-06 18:28 30.11298 -90.98584 11208 ft 339 kts 86°
2026-05-06 18:28 30.11577 -90.95941 11055 ft 324 kts 86°
2026-05-06 18:29 30.11654 -90.93385 10686 ft 316 kts 98°
2026-05-06 18:29 30.11460 -90.90871 10335 ft 312 kts 101°
2026-05-06 18:29 30.11223 -90.88475 9975 ft 308 kts 101°
2026-05-06 18:29 30.10985 -90.86031 9555 ft 304 kts 101°
2026-05-06 18:30 30.10763 -90.83604 9173 ft 304 kts 101°
2026-05-06 18:30 30.10553 -90.81172 8796 ft 306 kts 100°
2026-05-06 18:30 30.10349 -90.78716 8422 ft 308 kts 99°
2026-05-06 18:30 30.10153 -90.76281 8047 ft 309 kts 99°
2026-05-06 18:31 30.09955 -90.73796 7666 ft 311 kts 99°
2026-05-06 18:31 30.09757 -90.71313 7273 ft 307 kts 99°
2026-05-06 18:31 30.09497 -90.68901 6875 ft 298 kts 106°
2026-05-06 18:31 30.08980 -90.66616 6507 ft 291 kts 111°
2026-05-06 18:32 30.08409 -90.64410 6136 ft 280 kts 111°
2026-05-06 18:32 30.07870 -90.62308 5757 ft 268 kts 111°
2026-05-06 18:32 30.07368 -90.60288 5432 ft 251 kts 110°
2026-05-06 18:32 30.06937 -90.58414 5124 ft 232 kts 110°
2026-05-06 18:33 30.06541 -90.56701 4826 ft 216 kts 111°
2026-05-06 18:33 30.06144 -90.55042 4309 ft 212 kts 112°
2026-05-06 18:33 30.05763 -90.53456 4033 ft 200 kts 112°
2026-05-06 18:33 30.05393 -90.51932 3805 ft 194 kts 113°
2026-05-06 18:34 30.05043 -90.50482 3565 ft 179 kts 112°
2026-05-06 18:34 30.04725 -90.49160 3365 ft 163 kts 114°
2026-05-06 18:34 30.04430 -90.47942 3167 ft 155 kts 115°
2026-05-06 18:34 30.04136 -90.46738 3038 ft 157 kts 114°
2026-05-06 18:35 30.03840 -90.45523 2778 ft 159 kts 114°
2026-05-06 18:35 30.03552 -90.44324 2612 ft 152 kts 115°
2026-05-06 18:35 30.03264 -90.43140 2440 ft 155 kts 116°
2026-05-06 18:35 30.02976 -90.41949 2230 ft 155 kts 113°
2026-05-06 18:36 30.02692 -90.40755 2054 ft 150 kts 112°
2026-05-06 18:36 30.02424 -90.39637 1868 ft 145 kts 112°
2026-05-06 18:36 30.02149 -90.38510 1709 ft 147 kts 113°
2026-05-06 18:36 30.01874 -90.37374 1517 ft 146 kts 113°
2026-05-06 18:37 30.01602 -90.36245 1341 ft 148 kts 113°
2026-05-06 18:37 30.01322 -90.35080 1161 ft 152 kts 113°
2026-05-06 18:37 30.01037 -90.33898 984 ft 158 kts 114°
2026-05-06 18:37 30.00742 -90.32668 782 ft 158 kts 114°
2026-05-06 18:38 30.00452 -90.31459 603 ft 155 kts 110°
2026-05-06 18:38 30.00174 -90.30275 380 ft 151 kts 112°
2026-05-06 18:38 29.99889 -90.29119 208 ft 151 kts 108°
2026-05-06 18:38 29.99623 -90.27973 23 ft 141 kts 111°
2026-05-06 18:39 29.99381 -90.26995 11 ft 111 kts 106°
2026-05-06 18:39 29.99225 -90.26355 12 ft 64 kts 106°
2026-05-06 18:39 29.99119 -90.25906 13 ft 36 kts 100°
2026-05-06 18:40 29.99276 -90.25551 12 ft 23 kts 61°
2026-05-06 18:40 29.99347 -90.25412 11 ft 16 kts 47°
2026-05-06 18:40 29.99426 -90.25392 11 ft 0 kts 355°